DateTimeUTC,F1_A11,F1_S11,BsB_S11,BsG_S11,BsR_S11,BbsB_S11,BbsG_S11,BbsR_S11,BaB_A11,BaG_A11,BaR_A11,Tu_S11,T_S11,Uu_S11,U_S11,P_S11,T1_A11
2021-11-24T03:00:00Z,00000200,21000000,,,,,,,0000.31,0000.49,0000.01,18.4,25.2,,00.0,0644.7,30.8
2021-11-24T03:01:00Z,00000200,21000000,,,,,,,0000.08,0000.17,0000.31,18.4,25.3,,00.0,0644.6,30.8
2021-11-24T03:02:00Z,00000200,21000000,,,,,,,0000.09,-000.08,0000.04,18.4,25.3,,00.0,0644.6,30.8
2021-11-24T03:03:00Z,00000200,61000000,,,,,,,0000.25,0000.14,0000.28,18.4,25.3,,00.0,0644.6,30.8
2021-11-24T03:04:00Z,00000200,41000000,0000.11,0000.17,0000.05,0000.35,-000.10,0000.09,0000.19,-000.00,0000.04,18.7,25.2,,00.0,0645.4,30.8
2021-11-24T03:05:00Z,00000200,01000000,0000.30,-000.13,0000.30,0000.75,-000.09,0000.09,-000.03,0000.26,0000.32,18.7,25.1,,00.0,0645.5,30.8
2021-11-24T03:06:00Z,00000200,01000000,0000.76,0000.18,-000.13,0000.09,-000.15,-000.13,0000.12,0000.18,-000.11,18.8,25.1,,00.0,0645.6,30.8
2021-11-24T03:07:00Z,00000200,01000000,0000.37,0000.02,0000.04,0000.11,-000.08,0000.01,-000.03,-000.24,-000.50,18.7,25.1,,00.0,0645.6,30.8
2021-11-24T03:08:00Z,00000200,01000000,0000.11,0000.18,-000.01,0000.42,-000.03,0000.09,0000.20,0000.28,0000.42,18.7,25.1,,00.0,0645.6,30.8
2021-11-24T03:09:00Z,00000200,01000000,0000.39,0000.21,0000.11,0000.08,0000.07,-000.00,-000.06,-000.05,-000.22,18.6,25.1,,00.0,0645.6,30.8
2021-11-24T03:10:00Z,00000200,01000000,-000.15,0000.15,0000.17,-000.20,-000.16,-000.08,0000.21,0000.17,0000.15,18.6,25.1,,00.0,0645.6,30.8
2021-11-24T03:11:00Z,00000200,01000000,0000.50,0000.34,0000.10,0001.24,-000.15,0000.15,0000.14,0000.00,0000.31,18.6,25.1,,00.0,0645.6,30.8
2021-11-24T03:12:00Z,00000200,01000000,0000.65,0000.15,0000.23,0000.34,0000.07,-000.08,0000.13,0000.46,0000.00,18.6,25.0,,00.0,0645.6,30.8
2021-11-24T03:13:00Z,00000200,01000000,0000.99,0000.72,-000.04,-000.11,0000.09,0000.17,0000.07,0000.04,-000.01,18.6,25.1,,00.0,0645.6,30.8
2021-11-24T03:14:00Z,00000200,01000000,0000.28,0000.33,0000.08,0000.02,-000.28,0000.19,0000.04,0000.15,0000.30,18.6,25.1,,00.0,0645.7,30.8
2021-11-24T03:15:00Z,00000200,01000000,0000.31,0000.16,0000.21,0000.92,0000.18,-000.11,0000.28,-000.35,-000.13,18.7,25.1,,00.0,0645.7,30.8
2021-11-24T03:16:00Z,00000200,01000000,0000.54,0000.37,0000.21,0000.49,0000.04,-000.10,0000.12,0000.55,0000.12,18.7,25.1,,00.0,0645.7,30.8
2021-11-24T03:17:00Z,00000200,01000000,0000.53,0000.47,0000.09,0000.19,0000.12,-000.05,0000.18,-000.08,0000.05,18.7,25.0,,00.0,0645.7,30.8
2021-11-24T03:18:00Z,00000200,01000000,0000.41,0000.51,-000.20,0000.42,-000.18,-000.01,0000.15,0000.39,0000.18,18.7,25.1,,00.0,0645.7,30.8
2021-11-24T03:19:00Z,00000200,01000000,0000.22,0000.35,0000.41,-000.30,-000.12,0000.18,-000.06,-000.14,-000.28,18.7,25.0,,00.0,0645.8,30.8
2021-11-24T03:20:00Z,00000200,01000000,0000.08,0000.05,-000.08,-000.44,-000.07,0000.05,0000.01,-000.45,-000.19,18.6,25.1,,00.0,0645.8,30.8
2021-11-24T03:21:00Z,00000200,01000000,0000.23,0000.24,0000.41,0000.38,-000.15,0000.41,-000.14,0000.08,0000.34,18.5,25.0,,00.0,0645.8,30.7
2021-11-24T03:22:00Z,00000200,01000000,0000.43,0000.43,0000.45,0000.44,-000.01,0000.19,0000.08,0000.39,0000.30,18.4,25.0,,00.0,0645.7,30.7
2021-11-24T03:23:00Z,00000200,01000000,0000.73,0000.49,0000.12,0000.05,0000.11,0000.13,0000.31,0000.23,-000.15,18.3,24.9,,00.0,0645.7,30.7
2021-11-24T03:24:00Z,00000200,01000000,-000.25,0000.15,0000.04,0000.14,0000.23,-000.14,0000.19,0000.15,0000.01,18.2,24.9,,00.0,0645.7,30.7
2021-11-24T03:25:00Z,00000200,01000000,-000.19,-000.01,0000.21,-000.25,-000.04,0000.18,0000.56,0000.13,-000.01,18.2,24.8,,00.0,0645.8,30.7
2021-11-24T03:26:00Z,00000200,01000000,0000.61,0000.26,0000.02,0000.46,-000.56,-000.17,-000.13,0000.38,0000.44,18.2,24.8,,00.0,0645.9,30.7
2021-11-24T03:27:00Z,00000200,01000000,-000.61,0000.64,0000.35,0000.11,0000.04,0000.03,-000.10,-000.18,0000.03,18.2,24.8,,00.0,0645.9,30.7
2021-11-24T03:28:00Z,00000200,01000000,0000.53,0000.16,-000.01,0000.06,-000.10,-000.08,0000.39,0000.13,-000.09,18.3,24.8,,00.0,0646.0,30.7
2021-11-24T03:29:00Z,00000200,01000000,0000.21,0000.03,-000.09,0001.15,-000.02,0000.03,-000.04,-000.16,-000.21,18.3,24.8,,00.0,0646.0,30.7
2021-11-24T03:30:00Z,00000200,01000000,0000.16,0000.43,0000.33,0000.36,-000.10,-000.06,-000.09,-000.06,0000.07,18.3,24.8,,00.0,0646.1,30.7
2021-11-24T03:31:00Z,00000200,01000000,0000.49,0000.16,0000.33,0000.09,-000.29,-000.17,-000.00,0000.22,-000.10,18.3,24.8,,00.0,0646.2,30.8
2021-11-24T03:32:00Z,00000200,01000000,0000.33,0000.22,-000.31,-000.55,0000.05,0000.10,-000.04,-000.17,0000.05,18.3,24.8,,00.0,0646.2,30.8
2021-11-24T03:33:00Z,00000200,01000000,0000.68,0000.12,0000.28,0000.55,-000.42,0000.24,0000.05,0000.08,0000.06,18.4,24.8,,00.0,0646.2,30.8
2021-11-24T03:34:00Z,00000200,01000000,0001.13,0000.22,-000.19,0000.01,-000.02,-000.08,0000.45,0000.36,0000.00,18.4,24.8,,00.0,0646.1,30.8
2021-11-24T03:35:00Z,00000200,01000000,0000.26,0000.18,-000.02,0000.31,-000.27,-000.05,-000.16,-000.22,0000.35,18.4,24.8,,00.0,0646.0,30.8
2021-11-24T03:36:00Z,00000200,01000000,0000.94,0000.44,-000.24,0000.29,-000.24,-000.08,0000.36,0000.42,-000.23,18.4,24.8,,00.0,0645.9,30.8
2021-11-24T03:37:00Z,00000200,01000000,0001.29,0000.59,-000.29,-000.27,-000.13,-000.35,0000.22,0000.25,0000.17,18.4,24.8,,00.0,0645.9,30.8
2021-11-24T03:38:00Z,00000200,01000000,0000.42,0000.15,0000.01,-000.55,-000.11,0000.03,0000.31,0000.10,0000.14,18.4,24.8,,00.0,0645.8,30.8
2021-11-24T03:39:00Z,00000200,01000000,0000.46,-000.16,0000.28,0000.30,0000.01,0000.05,0000.16,0000.27,0000.07,18.5,24.8,,00.0,0645.8,30.8
2021-11-24T03:40:00Z,00000200,01000000,-000.43,0000.23,0000.30,-000.10,-000.07,-000.12,0000.27,0000.04,0000.49,18.5,24.8,,00.0,0645.8,30.8
2021-11-24T03:41:00Z,00000200,01000000,0001.11,0000.17,-000.00,0000.32,-000.24,0000.27,0000.09,0000.28,0000.00,18.5,24.8,,00.0,0645.7,30.8
2021-11-24T03:42:00Z,00000200,01000000,0001.56,0000.42,-000.00,0000.64,0000.15,-000.20,0000.32,0000.13,0000.34,18.5,24.8,,00.0,0645.6,30.8
2021-11-24T03:43:00Z,00000200,01000000,0000.42,0000.18,0000.17,-000.22,0000.08,0000.02,0000.45,0000.42,0000.19,18.5,24.9,,00.0,0645.6,30.8
2021-11-24T03:44:00Z,00000200,01000000,0000.49,0000.35,-000.11,-000.36,0000.40,-000.17,0000.07,0000.03,-000.10,18.5,24.9,,00.0,0645.5,30.8
2021-11-24T03:45:00Z,00000200,01000000,0000.73,0000.13,0000.23,0000.26,-000.06,0000.01,0000.23,0000.41,0000.25,18.5,24.9,,00.0,0645.5,30.8
2021-11-24T03:46:00Z,00000200,01000000,-000.26,0000.49,0000.06,0000.25,-000.04,0000.24,0000.09,0000.11,0000.40,18.5,24.9,,00.0,0645.4,30.8
2021-11-24T03:47:00Z,00000200,01000000,0000.92,0000.27,0000.13,-000.04,-000.33,-000.02,0000.38,0000.03,-000.25,18.5,24.9,,00.0,0645.3,30.8
2021-11-24T03:48:00Z,00000200,01000000,-000.10,0000.30,0000.19,0000.19,-000.14,0000.25,0000.45,0000.57,0000.64,18.5,24.9,,00.0,0645.3,30.8
2021-11-24T03:49:00Z,00000200,01000000,0000.17,0000.37,0000.00,0000.05,0000.10,-000.02,0000.28,0000.36,0000.23,18.6,24.9,,00.0,0645.3,30.8
2021-11-24T03:50:00Z,00000200,01000000,0000.70,0000.10,-000.19,0000.35,-000.09,0000.02,0000.47,0000.33,0000.36,18.6,24.9,,00.0,0645.4,30.8
2021-11-24T03:51:00Z,00000200,01000000,0000.34,0000.23,0000.17,0000.32,-000.02,0000.25,0000.12,0000.06,0000.11,18.6,24.9,,00.0,0645.4,30.8
2021-11-24T03:52:00Z,00000200,01000000,0000.37,0000.35,0000.16,0000.12,0000.05,0000.20,0000.12,0000.37,0000.02,18.6,24.9,,00.0,0645.4,30.8
2021-11-24T03:53:00Z,00000200,01000000,0000.45,0000.37,0000.08,0000.44,-000.08,-000.41,-000.08,0000.02,-000.05,18.6,24.9,,00.0,0645.4,30.8
2021-11-24T03:54:00Z,00000200,01000000,0000.23,0000.36,0000.08,-000.16,-000.09,0000.28,0000.52,0000.23,0000.38,18.6,24.9,,00.0,0645.4,30.8
2021-11-24T03:55:00Z,00000200,01000000,0001.03,0000.69,-000.22,0000.24,0000.01,0000.09,-000.40,-000.62,-000.31,18.6,24.9,,00.0,0645.5,30.8
2021-11-24T03:56:00Z,00000200,01000000,0000.37,0000.31,0000.04,0000.77,0000.10,-000.21,0000.09,0000.24,-000.05,18.6,25.0,,00.0,0645.5,30.8
2021-11-24T03:57:00Z,00000200,41000000,,,,,,,0001.18,0000.74,0000.58,18.7,25.0,,00.0,0645.4,30.8
2021-11-24T03:58:00Z,00000200,61000000,,,,,,,-000.35,0000.11,0000.19,18.3,25.1,,00.0,0644.7,30.8
2021-11-24T03:59:00Z,00000200,21000000,,,,,,,-000.30,-000.35,-000.30,18.3,25.2,,00.0,0644.7,30.8
